G7VHX Weather Reports


Display with metric or nautical units.
time (UTC)temp
F
wind
direction
speed
MPH
gust
MPH
rain 1hr
in
rain 24hr
in
rain mn
in
humidity
%
barometer
mb
20210923080047 57 273 0.0 0.0 0.00 0.00 0.00 87 1022.2
20210923074541 56 259 0.0 0.0 0.00 0.00 0.00 87 1022.1
20210923073051 55 233 0.0 0.0 0.00 0.00 0.00 88 1022.1
20210923071543 54 229 0.0 0.0 0.00 0.00 0.00 88 1022.3
20210923070049 54 284 0.0 0.0 0.00 0.00 0.00 88 1022.2
20210923064543 53 284 0.0 0.0 0.00 0.00 0.00 88 1022.3
20210923063051 53 284 0.0 0.0 0.00 0.00 0.00 88 1022.4
20210923061607 53 284 0.0 0.0 0.00 0.00 0.00 88 1022.6
20210923060108 53 285 0.0 0.0 0.00 0.00 0.00 88 1022.7
20210923054529 52 285 0.0 0.0 0.00 0.00 0.00 88 1022.6
20210923053034 51 285 0.0 0.0 0.00 0.00 0.00 87 1022.6
20210923051532 51 285 0.0 0.0 0.00 0.00 0.00 87 1022.7
20210923050027 51 285 0.0 0.0 0.00 0.00 0.00 86 1022.8
20210923044548 51 285 0.0 0.0 0.00 0.00 0.00 86 1022.9
20210923043048 52 285 0.0 0.0 0.00 0.00 0.00 86 1022.9
20210923041553 53 285 0.0 0.0 0.00 0.00 0.00 86 1022.9
20210923040025 53 285 0.0 0.0 0.00 0.00 0.00 86 1022.9
20210923034532 54 285 0.0 0.0 0.00 0.00 0.00 86 1022.9
20210923033014 55 285 0.0 0.0 0.00 0.00 0.00 86 1023.1
20210923031543 55 285 0.0 0.0 0.00 0.00 0.00 86 1023.4
20210923030027 55 285 0.0 0.0 0.00 0.00 0.00 86 1023.8
20210923023010 55 285 0.0 0.0 0.00 0.00 0.00 87 1024.0
20210923021505 55 285 0.0 0.0 0.00 0.00 0.00 87 1024.1
20210923020016 54 285 0.0 0.0 0.00 0.00 0.00 87 1023.9
20210923014658 54 285 0.0 0.0 0.00 0.00 0.00 87 1024.1
20210923013113 53 285 0.0 0.0 0.00 0.00 0.00 87 1024.3
20210923011723 53 285 0.0 0.0 0.00 0.00 0.00 87 1024.6
20210923010132 52 285 0.0 0.0 0.00 0.00 0.00 87 1024.8
20210923004620 52 285 0.0 0.0 0.00 0.00 0.00 87 1024.9
20210923003113 52 285 0.0 0.0 0.00 0.00 0.00 87 1025.1
20210923001604 52 285 0.0 0.0 0.00 0.00 0.00 87 1025.2
20210923000114 52 285 0.0 0.0 0.00 0.00 0.00 87 1025.2
20210922234636 52 285 0.0 0.0 0.00 0.00 0.00 87 1025.2
20210922233147 52 285 0.0 0.0 0.00 0.00 0.00 86 1025.1
20210922231601 52 285 0.0 0.0 0.00 0.00 0.00 86 1025.3
20210922230051 52 285 0.0 0.0 0.00 0.00 0.00 86 1025.2
20210922224559 52 285 0.0 0.0 0.00 0.00 0.00 86 1025.2
20210922223057 53 285 0.0 0.0 0.00 0.00 0.00 85 1025.2
20210922221548 53 285 0.0 0.0 0.00 0.00 0.00 85 1025.1
20210922220058 53 285 0.0 0.0 0.00 0.00 0.00 85 1025.3
20210922214601 54 285 0.0 0.0 0.00 0.00 0.00 84 1025.3
20210922213124 54 285 0.0 0.0 0.00 0.00 0.00 84 1025.4
20210922211541 54 285 0.0 0.0 0.00 0.00 0.00 83 1025.5
20210922210125 55 285 0.0 0.0 0.00 0.00 0.00 82 1025.8
20210922204542 56 285 0.0 0.0 0.00 0.00 0.00 82 1025.9
20210922203114 56 285 0.0 0.0 0.00 0.00 0.00 81 1025.9
20210922201536 57 285 0.0 0.0 0.00 0.00 0.00 79 1025.9
20210922200048 58 285 0.0 0.0 0.00 0.00 0.00 79 1026.0
20210922194623 59 285 0.0 0.0 0.00 0.00 0.00 78 1026.1
20210922193038 59 285 0.0 0.0 0.00 0.00 0.00 77 1026.1
20210922191612 60 285 0.0 0.0 0.00 0.00 0.00 77 1026.0
20210922190034 60 285 0.0 0.0 0.00 0.00 0.00 75 1026.1
20210922184524 61 285 0.0 0.0 0.00 0.00 0.00 73 1026.1
20210922183036 62 285 0.0 0.0 0.00 0.00 0.00 72 1026.1
20210922181534 63 285 0.0 0.0 0.00 0.00 0.00 71 1026.0
20210922180041 64 285 0.0 0.0 0.00 0.00 0.00 70 1026.1
20210922174536 65 292 0.0 0.0 0.00 0.00 0.00 70 1026.3
20210922173035 65 265 0.0 0.0 0.00 0.00 0.00 69 1026.3
20210922171524 66 283 0.0 0.0 0.00 0.00 0.00 67 1026.4
20210922170054 67 309 0.0 0.0 0.00 0.00 0.00 66 1026.2
20210922164535 68 233 0.0 0.0 0.00 0.00 0.00 66 1026.2
20210922163057 68 274 0.0 0.0 0.00 0.00 0.00 66 1026.5
20210922161532 68 242 0.0 0.0 0.00 0.00 0.00 67 1026.8
20210922160043 69 247 0.0 0.0 0.00 0.00 0.00 65 1026.7
20210922154536 70 213 0.0 0.0 0.00 0.00 0.00 63 1026.6
20210922153014 70 226 0.0 0.0 0.00 0.00 0.00 62 1026.7
20210922151524 70 213 0.0 0.0 0.00 0.00 0.00 64 1026.8
20210922150017 70 222 0.0 0.0 0.00 0.00 0.00 62 1026.9
20210922144511 71 239 0.0 0.0 0.00 0.00 0.00 62 1027.1
20210922143007 70 194 0.0 0.0 0.00 0.00 0.00 63 1027.2
20210922141504 70 213 0.0 0.0 0.00 0.00 0.00 64 1027.5
20210922140002 69 257 0.0 0.0 0.00 0.00 0.00 64 1027.7
20210922134644 70 205 0.0 0.0 0.00 0.00 0.00 63 1027.8
20210922133325 70 223 0.0 0.0 0.00 0.00 0.00 63 1027.9
20210922131741 71 273 0.0 0.0 0.00 0.00 0.00 63 1028.1
20210922130146 70 209 0.0 0.0 0.00 0.00 0.00 63 1028.2
20210922124631 69 261 0.0 0.0 0.00 0.00 0.00 65 1028.4
20210922123057 69 212 0.0 0.0 0.00 0.00 0.00 66 1028.6
20210922121631 68 253 0.0 0.0 0.00 0.00 0.00 68 1028.8
20210922120103 69 208 0.0 0.0 0.00 0.00 0.00 66 1028.9
20210922114555 70 175 0.0 0.0 0.00 0.00 0.00 65 1029.0
20210922113120 70 136 0.0 0.0 0.00 0.00 0.00 66 1029.3
20210922111538 69 312 0.0 0.0 0.00 0.00 0.00 67 1029.5
20210922110041 68 193 0.0 0.0 0.00 0.00 0.00 70 1029.7
20210922104529 68 194 0.0 0.0 0.00 0.00 0.00 71 1029.7
20210922103027 66 200 0.0 0.0 0.00 0.00 0.00 75 1029.9
20210922101523 65 155 0.0 0.0 0.00 0.00 0.00 79 1030.0
20210922100017 63 178 0.0 0.0 0.00 0.00 0.00 81 1030.1
20210922094513 62 212 0.0 0.0 0.00 0.00 0.00 83 1030.3
20210922093008 60 247 0.0 0.0 0.00 0.00 0.00 86 1030.5
20210922091504 59 250 0.0 0.0 0.00 0.00 0.00 87 1030.7
20210922090156 57 252 0.0 0.0 0.00 0.00 0.00 88 1030.8
20210922084639 55 252 0.0 0.0 0.00 0.00 0.00 89 1030.8
20210922081730 52 271 0.0 0.0 0.00 0.00 0.00 89 1030.8